Location: Bacea
(45.9500°N, 22.6667°E)
Time: 10:32:21
(UTC+00:00)

CZ-4C R/B - Pass Details

Date: 16 October 2021
Orbit: 403 x 482 km, 97.7° (Epoch: 07 December)

Event Time Altitude Azimuth Distance (km) Brightness Sun altitude
Rises 17:18:06 0° 6° (N) 2,516 6.7 -17.5°
Reaches altitude 10° 17:20:16 10° 358° (N) 1,622 5.8 -17.9°
Maximum altitude 17:23:31 39° 289° (WNW) 699 4.4 -18.5°
Drops below altitude 10° 17:26:41 10° 219° (SW) 1,567 6.0 -19.0°
Sets 17:28:44 0° 211° (SSW) 2,417 6.9 -19.4°
